Regional Weather Roundup
Issued by NWS

Home | Current Version | Previous Version | Text Only | Print | Product List | Glossary On
Versions: 1 2 3 4 5 6 7 8 9 10 11 12 13 14 15 16 17 18 19 20 21 22 23 24 25 26 27 28 29 30 31 32 33 34 35 36 37 38 39 40 41 42 43 44 45 46 47 48 49 50
000
ASUS43 KOAX 051710
RWRNE

WEATHER ROUNDUP FOR NEBRASKA
NATIONAL WEATHER SERVICE OMAHA NE
1200 PM CDT SAT SEP 05 2015

NOTES: SATELLITE DATA IS BEING USED TO AUGMENT CLOUD COVER ABOVE
       12000 FEET.
       "FAIR" INDICATES FEW OR NO CLOUDS BELOW 12,000 FEET WITH NO
       SIGNIFICANT WEATHER AND/OR OBSTRUCTIONS TO VISIBILITY.

  * THESE STATIONS DO NOT REPORT WEATHER SUCH AS RAIN...SNOW OR FOG.

NEZ001>004-019>022-054>056-051800-
NEBRASKA PANHANDLE

CITY           SKY/WX    TMP DP  RH WIND       PRES   REMARKS
SCOTTSBLUFF    MOSUNNY   80  52  37 W8        29.91R
ALLIANCE       PTSUNNY   82  54  37 NW7       29.88R
CHADRON        CLOUDY    79  54  41 VRB5      29.85F
KIMBALL        PTSUNNY   78  48  35 NW6       29.96S
SIDNEY         PTSUNNY   83  50  31 NW10      29.93S
$$

NEZ057>060-069>072-079>082-051800-
SOUTHWEST NEBRASKA

CITY           SKY/WX    TMP DP  RH WIND       PRES   REMARKS
NORTH PLATTE   CLOUDY    78  60  53 S13       29.86S
IMPERIAL       CLOUDY    86  54  33 SW14      29.89S
LEXINGTON      CLOUDY    81  65  59 S16G22    29.87F
MCCOOK         CLOUDY    85  59  41 S14       29.87R
OGALLALA       PTSUNNY   83  59  44 SW7       29.86F
$$

NEZ005>010-023>029-035>040-094-051800-
NORTH CENTRAL NEBRASKA

CITY           SKY/WX    TMP DP  RH WIND       PRES   REMARKS
VALENTINE      CLOUDY    76  62  62 E6        29.82S
AINSWORTH      CLOUDY    76  66  71 E5        29.84S
BROKEN BOW     CLOUDY    80  63  55 S15G24    29.87S
O`NEILL        CLOUDY    83  66  56 S9G18     29.85S
ORD            CLOUDY    83  65  54 S12       29.86R
THEDFORD       CLOUDY    83  60  45 S16G23    29.85S
$$

NEZ041-046>049-061>064-073>077-083>087-051800-
SOUTH CENTRAL NEBRASKA

CITY           SKY/WX    TMP DP  RH WIND       PRES   REMARKS
GRAND ISLAND   CLOUDY    87  67  51 S26G33    29.90S HX  90
AURORA         PTSUNNY   87  67  51 S17G24    29.91S HX  90
HASTINGS       PTSUNNY   87  66  49 S16G30    29.91S
HEBRON         PTSUNNY   88  66  47 S20G31    29.94S HX  90
HOLDREGE       CLOUDY    82  63  51 S17G25    29.90S
KEARNEY *      CLOUDY    82  64  54 E17       29.89F
YORK           PTSUNNY   86  70  58 S18G29    29.92S HX  90
$$

NEZ011>018-030>034-042>045-051800-
NORTHEAST NEBRASKA

CITY           SKY/WX    TMP DP  RH WIND       PRES   REMARKS
NORFOLK        MOSUNNY   87  71  58 S14G30    29.86F HX  93
ALBION         MOSUNNY   84  67  57 S16G22    29.89R
BLAIR          SUNNY     85  70  61 S18G25    29.94F
COLUMBUS *     MOSUNNY   88  70  55 S15G21    29.89F HX  92
FREMONT        MOSUNNY   87  69  55 S14G22    29.93F HX  91
TEKAMAH        MOSUNNY   87  73  62 S16G24    29.92S HX  94
WAYNE          PTSUNNY   83  73  73 S17G23    29.88F
$$

NEZ050>053-065>068-078-088>093-051800-
SOUTHEAST NEBRASKA

CITY           SKY/WX    TMP DP  RH WIND       PRES   REMARKS
LINCOLN        SUNNY     90  70  51 S20G29    29.93F HX  95
OMAHA EPPLEY   PTSUNNY   89  71  55 S20       29.94F HX  95
BEATRICE       MOSUNNY   87  70  55 S14G25    29.95F HX  92
FALLS CITY     SUNNY     91  71  51 S13       29.98F HX  97
NEBRASKA CITY  SUNNY     88  63  42 SW16G24   29.97F
PLATTSMOUTH    SUNNY     86  71  60 S18       29.96F HX  91
$$

NEZ044-045-051>053-067-051800-
OMAHA AREA

CITY           SKY/WX    TMP DP  RH WIND       PRES   REMARKS
OMAHA EPPLEY   PTSUNNY   89  71  55 S20       29.94F HX  95
BLAIR          SUNNY     85  70  61 S18G25    29.94F
FREMONT        MOSUNNY   87  69  55 S14G22    29.93F HX  91
MILLARD        SUNNY     88  73  61 S10G18    29.94S HX  96
OFFUTT AFB     SUNNY     87  72  59 S14       29.94F HX  94
PLATTSMOUTH    SUNNY     86  71  60 S18       29.96F HX  91
WAHOO          FAIR      87  72  59 S15G22    29.93F HX  93
$$



USA.gov is the U.S. government's official web portal to all federal, state and local government web resources and services.